Wind_Speed
2 3 4 5 6 8 9 10 11 12 13 14 15 16 17 17 18 19 19 19 19 19 18 18 17 17 15 14 12 11 11 10 8 8 10 11 12 15 17 18 20 22 24
3 3 4 5 6 8 9 10 11 11 12 13 15 15 16 17 18 18 18 19 19 19 19 19 18 18 17 15 14 14 13 12 11 10 11 12 13 15 17 18 20 22 24
4 4 5 6 7 8 9 10 11 11 12 13 14 15 16 17 18 18 19 19 19 19 20 20 20 19 18 17 17 16 16 15 14 13 12 13 14 15 17 19 20 22 24
5 6 6 7 8 9 10 11 11 12 13 14 15 15 16 17 18 18 19 20 20 20 21 21 21 21 20 20 19 19 18 17 17 16 15 15 16 17 19 20 21 22 24
7 7 8 9 10 11 12 12 13 14 15 15 16 16 17 17 18 19 20 21 21 22 23 23 23 23 23 23 22 22 21 20 19 18 18 17 18 19 20 22 23 24 25
9 10 10 11 12 13 14 15 16 16 17 17 17 18 18 19 20 21 22 23 23 24 25 25 25 25 25 25 25 25 24 23 22 21 21 20 21 21 22 23 25 26 28
11 12 12 13 14 15 16 17 18 19 19 19 20 20 21 22 23 23 24 24 26 27 27 28 28 28 28 28 28 28 27 26 26 25 24 24 25 25 25 26 27 28 29
13 14 14 15 16 17 18 19 20 21 21 22 23 23 24 25 25 26 27 27 29 30 31 31 31 31 32 32 31 31 30 30 29 29 28 28 28 29 29 30 30 31 31
15 16 17 18 19 19 20 21 22 22 23 24 25 26 26 27 28 29 30 31 32 33 35 35 35 35 35 35 35 34 33 33 33 32 31 31 32 32 32 33 34 34 35
17 18 19 20 21 22 22 23 24 25 26 27 28 29 29 30 31 32 33 34 35 37 38 38 39 39 39 39 39 38 37 37 37 37 36 35 35 36 36 37 37 38 38
20 20 21 23 23 24 25 26 27 27 28 30 31 32 33 34 35 36 36 37 39 40 41 42 42 43 43 43 42 42 41 41 41 41 40 39 39 40 40 40 41 42 42
22 23 24 25 26 27 27 28 29 30 31 32 33 34 35 36 38 39 40 41 43 44 45 45 46 46 46 46 45 45 45 45 45 45 44 43 42 43 44 44 45 46 45
24 25 26 28 28 29 30 31 32 33 34 35 36 37 38 39 41 42 43 45 46 47 48 48 49 50 50 49 49 49 49 49 49 49 48 47 46 47 47 48 48 48 48
27 28 29 30 31 32 33 34 35 36 37 38 39 40 41 43 44 45 47 48 49 51 51 52 52 53 53 52 52 52 53 53 53 52 51 51 50 50 51 51 51 51 51
30 31 32 33 34 35 36 37 38 39 40 41 42 43 44 45 47 48 50 51 53 54 55 55 56 56 55 55 55 54 55 55 55 53 53 52 52 53 53 53 53 53 54
33 34 35 36 36 37 38 40 41 42 43 44 45 46 47 49 50 52 53 55 56 57 58 58 58 58 57 57 56 56 56 56 56 55 54 54 54 55 55 54 54 55 56
35 37 38 38 39 40 41 42 43 44 45 46 48 49 51 52 54 55 56 58 59 60 61 60 60 60 59 58 58 58 57 57 56 55 55 55 56 56 56 55 54 55 56
39 40 40 41 42 43 44 45 46 46 47 49 51 53 54 55 57 58 59 61 61 62 63 62 62 62 61 60 60 60 59 57 56 56 56 55 55 55 54 54 54 54 55
42 43 43 44 45 46 47 47 48 49 50 51 53 55 57 58 59 61 62 64 64 64 64 64 64 63 63 62 62 61 60 58 57 57 56 55 54 54 52 52 53 53 53
44 45 46 46 48 48 49 50 50 51 53 54 56 57 59 60 62 63 65 65 65 66 66 65 65 65 65 64 63 61 60 59 58 57 56 54 53 52 51 50 50 50 49
47 47 48 49 50 50 51 52 53 54 56 57 59 60 62 64 65 66 66 66 66 67 67 66 66 66 65 65 63 61 60 59 57 56 55 54 52 50 49 48 47 47 47
48 49 50 51 52 52 53 54 56 57 59 60 62 63 65 66 66 66 66 67 68 68 68 68 68 67 66 65 63 61 60 58 57 56 55 52 50 48 46 45 44 44 45
50 51 52 52 53 54 56 57 58 60 62 63 64 65 66 67 67 68 68 68 68 68 69 68 68 67 66 64 63 61 60 58 56 54 52 50 48 46 45 44 43 42 42
52 53 53 54 55 57 58 59 61 63 64 65 66 67 68 68 68 69 69 69 68 68 68 68 67 66 64 63 61 60 57 54 52 50 49 47 46 45 44 42 41 40 39
53 54 55 57 58 59 61 62 64 65 66 67 67 68 69 69 69 69 69 68 68 68 68 67 66 65 63 61 59 56 54 51 49 47 46 45 44 43 41 40 39 38 37
55 56 58 59 61 62 63 64 65 66 67 68 68 69 69 69 69 69 68 68 68 68 67 66 65 63 60 57 55 53 51 49 47 45 45 43 42 41 39 38 37 36 36
Wind_Direction
281 318 337 347 355 358 360 1 3 4 6 8 10 12 14 14 13 13 14 14 13 12 11 9 7 5 3 358 352 345 338 329 312 285 271 262 251 245 243 239 236 236 237
272 296 317 330 339 345 347 349 351 354 357 359 2 4 5 5 5 6 5 6 7 6 5 3 0 358 355 351 346 340 334 326 316 298 279 269 261 252 248 246 244 240 240
265 284 302 316 325 331 335 337 340 343 345 348 352 354 356 356 358 359 359 359 359 358 357 357 355 352 348 343 339 335 330 324 315 304 288 274 267 259 253 251 249 245 244
263 280 294 305 313 318 322 325 327 330 333 335 339 342 345 347 349 350 350 351 351 351 351 349 346 344 342 337 333 330 326 321 314 305 293 281 274 267 261 256 253 250 249
268 280 290 298 304 309 313 316 319 322 323 325 327 331 334 337 339 341 341 342 342 342 342 341 339 336 334 332 328 324 321 317 312 305 297 286 280 274 268 262 257 255 254
272 279 288 294 299 304 307 311 314 316 317 317 319 322 324 326 328 330 332 333 334 334 333 333 331 328 327 326 324 320 316 312 308 302 295 288 283 278 274 267 263 259 257
274 280 286 292 297 300 303 306 309 311 311 311 312 314 315 317 319 322 323 325 326 326 326 326 325 323 321 321 319 315 312 308 304 300 294 287 283 279 275 272 268 265 262
277 282 286 291 296 298 300 302 305 306 307 307 308 309 310 311 313 315 317 318 319 320 320 320 319 318 317 316 315 312 308 304 300 297 292 287 283 280 277 275 273 270 268
278 283 287 291 294 296 298 300 302 303 304 305 306 307 307 308 309 310 311 313 314 316 316 316 315 315 313 312 311 309 306 302 298 295 292 286 283 280 277 276 274 273 271
280 284 288 291 294 295 297 298 300 301 302 303 304 305 305 306 307 308 309 310 311 312 313 312 311 311 311 309 308 306 303 300 298 295 292 287 284 281 278 276 275 274 272
281 285 288 292 293 295 296 297 298 300 300 302 303 303 304 305 306 307 308 308 309 310 310 310 309 308 307 306 305 302 300 298 296 293 290 287 284 282 280 278 276 275 274
282 285 289 292 293 294 295 297 298 299 300 301 301 302 302 303 304 306 307 307 308 308 309 308 307 307 305 304 302 300 298 297 295 292 288 284 283 281 279 278 276 275 274
283 285 288 291 292 293 294 296 297 298 299 300 300 301 302 302 303 304 305 306 307 307 307 307 306 306 304 302 301 299 298 296 294 292 287 283 282 280 278 276 275 275 274
284 286 288 290 291 293 294 295 297 298 299 299 299 300 301 302 303 303 304 305 306 307 306 306 305 305 303 301 300 299 298 296 295 292 287 283 281 279 277 276 275 274 273
285 287 289 290 291 293 294 295 296 297 298 298 299 299 300 302 302 303 304 304 305 306 306 306 305 305 303 301 299 298 297 296 294 291 287 282 281 280 278 276 275 273 272
286 287 289 290 291 293 294 295 296 296 297 298 298 299 300 301 302 303 304 304 305 306 306 306 305 304 302 301 300 298 297 296 294 291 287 284 283 281 279 276 274 273 271
286 287 288 290 291 293 294 294 295 296 297 297 298 299 300 302 302 303 304 305 306 306 306 305 304 304 303 301 300 298 297 296 294 291 289 286 284 282 279 276 273 272 270
286 287 289 290 291 293 293 294 295 295 296 297 299 300 301 302 303 303 304 305 306 306 306 305 304 303 303 301 300 298 297 296 294 291 289 287 285 283 279 276 274 272 270
286 288 288 289 291 292 293 294 294 295 296 297 299 300 301 302 303 303 304 305 305 305 305 305 304 303 303 301 300 299 297 295 293 291 289 287 285 283 280 277 275 273 271
286 287 288 289 291 292 293 293 294 295 297 298 299 300 300 302 303 303 304 305 305 305 305 305 304 303 302 301 300 298 296 294 292 291 289 286 285 282 280 278 275 273 271
286 287 288 289 290 292 293 294 295 296 297 298 299 300 301 302 303 303 304 304 304 305 305 304 304 302 302 301 300 298 296 294 292 291 288 286 284 282 279 276 274 272 270
286 287 288 290 291 292 293 294 295 297 298 299 300 300 301 302 303 303 304 304 304 304 304 304 303 302 301 300 299 297 295 294 292 290 288 285 283 281 278 275 272 272 270
286 287 289 290 291 292 293 294 295 297 298 299 300 301 302 302 303 303 303 304 304 304 304 304 303 302 301 299 299 297 295 293 291 289 287 284 281 279 278 275 270 270 269
287 288 289 290 291 292 293 294 296 297 298 299 300 301 301 302 302 303 303 303 303 303 303 303 303 303 301 300 299 297 296 293 290 288 286 284 281 278 277 274 269 269 266
287 288 289 290 291 292 293 295 296 297 299 299 300 301 301 302 302 303 303 303 303 303 303 303 302 302 301 299 298 297 295 292 289 288 286 283 281 278 275 273 269 266 263
288 289 290 291 292 293 294 296 297 298 299 299 300 301 301 301 302 302 303 303 303 303 303 302 302 301 300 299 298 296 294 292 289 287 285 282 280 277 274 271 267 263 261
Height
5878 5878 5877 5877 5876 5875 5873 5872 5870 5868 5866 5864 5862 5859 5857 5854 5852 5849 5846 5844 5841 5839 5836 5834 5832 5831 5829 5828 5827 5826 5825 5825 5825 5825 5825 5826 5827 5828 5830 5831 5833 5835 5837
5877 5877 5876 5876 5875 5874 5872 5871 5869 5868 5866 5864 5861 5859 5857 5854 5852 5849 5846 5844 5841 5839 5836 5834 5832 5830 5828 5826 5825 5824 5823 5823 5823 5823 5823 5823 5823 5824 5826 5827 5829 5830 5832
5875 5875 5875 5874 5873 5872 5871 5870 5868 5867 5865 5863 5861 5859 5856 5854 5851 5849 5846 5843 5841 5838 5835 5833 5830 5828 5826 5824 5823 5822 5820 5819 5819 5819 5819 5819 5819 5820 5821 5822 5823 5825 5826
5873 5873 5873 5872 5872 5871 5869 5868 5867 5865 5863 5861 5860 5857 5855 5852 5850 5847 5845 5842 5839 5836 5834 5831 5828 5826 5823 5821 5819 5818 5816 5815 5814 5814 5814 5814 5814 5815 5815 5816 5817 5819 5820
5871 5871 5870 5870 5869 5868 5867 5866 5864 5863 5861 5859 5857 5855 5853 5851 5848 5845 5843 5840 5837 5834 5831 5828 5825 5822 5820 5817 5815 5813 5812 5810 5809 5808 5808 5808 5808 5809 5809 5810 5811 5812 5813
5868 5868 5868 5867 5866 5865 5864 5863 5861 5860 5858 5856 5854 5852 5850 5848 5845 5843 5840 5837 5834 5831 5828 5825 5822 5818 5815 5812 5810 5807 5805 5804 5803 5802 5801 5801 5801 5801 5801 5802 5803 5804 5805
5865 5865 5864 5864 5863 5862 5861 5859 5858 5856 5854 5852 5850 5848 5846 5844 5841 5838 5836 5833 5830 5826 5823 5820 5817 5813 5810 5807 5803 5800 5798 5795 5794 5793 5793 5792 5792 5793 5793 5793 5794 5795 5796
5861 5861 5860 5860 5859 5858 5857 5855 5854 5852 5850 5848 5846 5844 5841 5839 5836 5833 5830 5827 5824 5820 5817 5814 5810 5806 5802 5799 5796 5793 5790 5787 5784 5783 5783 5782 5782 5782 5782 5783 5783 5784 5786
5857 5857 5856 5855 5854 5853 5852 5850 5849 5847 5845 5843 5840 5838 5836 5833 5830 5827 5824 5821 5817 5814 5810 5805 5801 5798 5794 5790 5787 5783 5780 5777 5774 5772 5771 5771 5771 5771 5771 5772 5772 5773 5774
5852 5852 5851 5850 5849 5848 5846 5845 5843 5841 5839 5837 5834 5831 5829 5826 5823 5820 5817 5813 5810 5806 5802 5797 5792 5788 5783 5779 5775 5772 5769 5766 5763 5761 5759 5759 5758 5759 5759 5759 5760 5760 5761
5847 5846 5845 5844 5843 5842 5840 5838 5836 5834 5832 5830 5827 5824 5821 5818 5815 5812 5808 5804 5800 5796 5792 5787 5782 5777 5772 5767 5763 5759 5756 5753 5751 5748 5746 5745 5745 5745 5745 5745 5746 5746 5747
5841 5840 5839 5838 5836 5835 5833 5831 5829 5827 5824 5822 5819 5816 5813 5810 5806 5802 5798 5794 5790 5785 5780 5775 5770 5765 5760 5755 5750 5746 5743 5739 5737 5734 5732 5731 5731 5730 5730 5730 5730 5730 5731
5834 5833 5832 5831 5829 5827 5825 5823 5821 5818 5816 5813 5810 5807 5803 5800 5796 5792 5788 5783 5778 5773 5768 5762 5757 5752 5746 5741 5736 5732 5728 5724 5721 5718 5716 5715 5715 5714 5714 5714 5714 5714 5715
5827 5826 5824 5823 5821 5819 5816 5814 5812 5809 5806 5803 5800 5797 5793 5789 5785 5781 5776 5771 5766 5761 5755 5749 5743 5737 5731 5726 5721 5716 5712 5708 5704 5701 5698 5697 5697 5696 5696 5696 5696 5696 5697
5819 5817 5816 5814 5812 5810 5807 5804 5802 5799 5796 5793 5789 5785 5782 5778 5773 5768 5763 5758 5752 5747 5741 5735 5729 5723 5717 5711 5705 5700 5695 5690 5686 5682 5680 5679 5678 5677 5677 5676 5676 5677 5678
5810 5808 5806 5804 5802 5800 5797 5794 5791 5788 5784 5781 5777 5773 5769 5765 5760 5755 5749 5744 5738 5731 5726 5719 5713 5706 5700 5694 5688 5683 5678 5672 5668 5664 5661 5659 5658 5657 5657 5656 5656 5656 5657
5800 5798 5796 5794 5792 5789 5786 5783 5780 5777 5772 5768 5764 5760 5756 5751 5746 5740 5734 5729 5722 5715 5709 5703 5696 5690 5683 5677 5671 5666 5661 5655 5650 5646 5643 5641 5638 5636 5635 5635 5635 5635 5636
5790 5788 5785 5783 5780 5777 5774 5771 5768 5764 5761 5756 5751 5746 5742 5736 5731 5725 5719 5713 5707 5699 5692 5685 5679 5672 5666 5660 5653 5648 5643 5638 5632 5628 5624 5621 5619 5616 5615 5614 5614 5614 5614
5779 5776 5774 5771 5768 5765 5762 5758 5755 5751 5747 5743 5738 5733 5727 5721 5715 5709 5702 5696 5690 5683 5675 5668 5661 5655 5648 5642 5636 5630 5624 5619 5614 5610 5606 5602 5600 5597 5596 5595 5594 5594 5594
5767 5764 5761 5758 5755 5752 5748 5745 5741 5737 5733 5728 5723 5717 5711 5706 5700 5693 5686 5679 5672 5665 5658 5651 5644 5637 5630 5623 5617 5611 5606 5601 5596 5591 5587 5584 5581 5579 5577 5576 5575 5575 5575
5754 5751 5748 5745 5742 5738 5734 5731 5727 5722 5718 5713 5707 5701 5695 5689 5683 5676 5669 5662 5654 5647 5640 5633 5626 5619 5612 5605 5599 5593 5588 5583 5578 5573 5569 5566 5563 5561 5559 5558 5557 5557 5557
5740 5738 5734 5731 5728 5724 5720 5716 5712 5707 5702 5697 5691 5685 5677 5671 5664 5658 5651 5643 5636 5628 5621 5614 5607 5600 5593 5586 5580 5574 5569 5564 5560 5555 5551 5548 5546 5543 5541 5541 5541 5540 5540
5726 5723 5720 5717 5713 5709 5705 5701 5696 5691 5685 5679 5673 5667 5660 5653 5646 5639 5632 5625 5617 5610 5602 5595 5588 5581 5574 5567 5561 5555 5550 5546 5541 5536 5533 5531 5529 5527 5526 5525 5525 5525 5525
5712 5709 5705 5702 5698 5694 5689 5684 5679 5674 5668 5662 5655 5649 5642 5635 5628 5621 5614 5606 5599 5591 5583 5576 5569 5562 5555 5549 5543 5537 5532 5527 5522 5519 5516 5514 5513 5512 5510 5509 5509 5509 5510
5697 5693 5690 5686 5682 5677 5672 5667 5662 5656 5650 5644 5637 5630 5623 5616 5609 5602 5594 5587 5580 5572 5565 5557 5550 5543 5537 5530 5525 5519 5515 5510 5506 5502 5500 5499 5497 5496 5495 5494 5495 5495 5496
5681 5677 5673 5669 5665 5660 5655 5650 5644 5638 5631 5625 5618 5611 5604 5597 5590 5583 5575 5568 5560 5553 5546 5539 5532 5525 5518 5513 5507 5503 5498 5494 5491 5487 5484 5483 5482 5481 5480 5480 5481 5482 5483